Regional Weather Roundup
Issued by NWS Newport/Morehead, NC

Current Version | Previous Version | Graphics & Text | Print | Product List | Glossary Off
Versions: 1 2 3 4 5 6 7 8 9 10 11 12 13 14 15 16 17 18 19 20 21 22 23 24 25 26 27 28 29 30 31 32 33 34 35 36 37 38 39 40 41 42 43 44 45 46 47 48 49 50

000
ASUS42 KMHX 270625
RWRMHX
WEATHER ROUNDUP FOR EASTERN NORTH CAROLINA
NATIONAL WEATHER SERVICE NEWPORT/MOREHEAD CITY NC
200 AM EDT THU JUL 27 2017

NOTE: "FAIR" INDICATES FEW OR NO CLOUDS BELOW 12,000 FEET
WITH NO SIGNIFICANT WEATHER AND/OR OBSTRUCTIONS TO VISIBILITY

NCZ015>017-031-032-045>047-102-103-270700-
NORTH COAST

CITY           SKY/WX    TMP DP  RH WIND       PRES   REMARKS
EDENTON        PTCLDY    74  68  80 CALM      30.11F
ELIZABETH CITY CLOUDY    74  70  87 SE3       30.10F
KITTY HAWK     CLEAR     71  66  84 CALM      30.10S
MANTEO         CLEAR     69  66  88 CALM      30.11S

$$

NCZ045>047-081-094-103-104-270700-
CENTRAL COAST

CITY           SKY/WX    TMP DP  RH WIND       PRES   REMARKS
FRISCO         CLEAR     74  69  85 NE5       30.09F

$$

NCZ095-097-098-100-101-270700-
SOUTHERN COAST

CITY           SKY/WX    TMP DP  RH WIND       PRES   REMARKS
BEAUFORT       CLEAR     72  70  93 NE6       30.09S
CEDAR ISLAND   NOT AVBL
JACKSONVILLE   CLEAR     72  70  93 CALM      30.08F
PINEY ISLAND   CLEAR    N/A N/A N/A E5        30.09S
WILMINGTON     CLEAR     72  71  97 CALM      30.08S


$$

NCZ011>013-027>030-043-044-078>080-089-090>093-098-270700-
COASTAL PLAIN

CITY           SKY/WX    TMP DP  RH WIND       PRES   REMARKS
AHOSKIE          N/A     69  67  96 CALM      30.10F
CLINTON        PTCLDY    72  71  96 CALM      30.10S
ELIZABETHTOWN  NOT AVBL
GOLDSBORO      PTCLDY    71  71 100 CALM      30.08F
GREENVILLE     PTCLDY    72  68  88 CALM      30.12S
HAVELOCK       CLEAR     71  67  87 CALM      30.10F
KENANSVILLE    PTCLDY    68  66  94 CALM      30.10F
KINSTON        CLOUDY    73  66  78 SE3       30.10F
NEW BERN       CLEAR     70  68  93 CALM      30.11S
RICHLANDS      CLEAR     68  67  96 CALM      30.10F
ROCKY MOUNT    NOT AVBL
WASHINGTON     MOCLDY    70  67  90 CALM      30.10F
WHITEVILLE     CLEAR     70  69  97 CALM      30.08S

$$

AMZ130-135-150-152-154-156-158-170-250-252-270-ANZ085-086-088-633-658-670-270700-
MARINE OBSERVATIONS

STATION/POSITION TIME  TEMP    WIND        PRES    WAVE   SWELL
                       AIR SEA DIR/SP/G            HT/PER HT/PER
                 (UTC) (F)     (DEG/KT/KT) (MB)    (FT/S) (FT/S)
CHESAPEAKE LIGHT NOT AVBL
64 E VA BEACH    0550   74 77   90/  4/  4 1019.9    3/ 8   3/ 8
DUCK             0600   74 75  130/  4/  5 1019.1
2 E DUCK         0600      74                N/A     3/ 7
OREGON INLET     0600   74 76   70/  2/  4 1019.1
13E OREGON INLT  0548      78                N/A     3/ 8   2/ 8
HATTERAS CG      0600   76 79   50/  3/  4 1018.9
DIAMOND BUOY     0550   80 83   80/  6/  8 1018.6    3/ 8   3/ 8
CAPE LOOKOUT     0600   79      80/  7/  8 1018.3
BEAUFORT LAB     0600   73 79   30/  5/  6 1018.1
30 SE NEW RVR IN 0608   81 84  110/  8/ 12 1018.3
30 SE NEW RVR IN 0543      84                N/A     3/ 5
27 SE WRIGHTSVLE 0608   81 82  120/ 10/ 14 1017.9
5 SE WRIGHTSVLE  0608   81 81  110/ 10/ 14 1018.0
225 S CAPE HAT   0550   81 83  270/  6/  8 1017.7    2/ 6   2/ 6
41 SE CHARLESTON 0610   80 82  150/  2/  4 1016.9

$$




USA.gov is the U.S. government's official web portal to all federal, state and local government web resources and services.